Orbital Elements at Epoch 2459000.5 (2020-May-31.0) TDB
Reference: JPL 17 (heliocentric ecliptic J2000)
Element | Value | Uncertainty (1-sigma) | Units |
e | .1582515025670496 | 3.2565e-08 | |
a | 2.453892875871637 | 1.3366e-08 | au |
q | 2.065560641126372 | 8.1809e-08 | au |
i | 3.250676007215818 | 5.8746e-06 | deg |
node | 69.79223781331778 | 7.1041e-05 | deg |
peri | 54.41794074514011 | 7.4267e-05 | deg |
M | 102.6018413748515 | 2.2432e-05 | deg |
tp | 2458600.339256955057 (2019-Apr-26.83925695) | 8.5931e-05 | TDB |
period | 1404.047583998713 3.84 | 1.1472e-05 3.141e-08 | d yr |
n | .256401566515804 | 2.0949e-09 | deg/d |
Q | 2.842225110616902 | 1.5482e-08 | au |
|
| | Orbit Determination Parameters
Additional Information
|